Home > Weather > Smara > Past weeks

Past Weather in Smara, Western Sahara — Yesterday and Last 2 Weeks

Now
75 °F

Passing clouds.


Feels Like: 77 °F
Forecast: 73 / 106 °F
Wind: 22 mph from Northeast

Location: Laayoune/Hassan Isl

Current Time: Jul 29, 2016 at 11:26:25 AM

Latest Report: Jul 29, 2016 at 11:00 AM


Visibility: 5 mi

Pressure: 29.98 "Hg

Humidity: 61%

Dew Point: 61 °F

Location of SmaraLocation

Past Weather in Smara — Graph

°F

Smara Temperature Yesterday

Maximum temperature yesterday: 84 °F (at 2:00 PM)
Minimum temperature yesterday: 68 °F (at 6:00 AM)
Average temperature yesterday: 75 °F

High & Low Weather Summary for the Past Weeks

 TemperatureHumidityPressure
High102 °F (Jul 20, 3:00 PM)94% (Jul 15, 4:00 AM)30.04 "Hg (Jul 15, 4:00 AM)
Low66 °F (Jul 16, 7:00 PM)26% (Jul 20, 3:00 PM)29.83 "Hg (Jul 19, 5:00 PM)
Average78 °F66%29.92 "Hg
* Reported Jul 14 10:00 AM — Jul 29 10:00 AM, Smara, Weather by CustomWeather, © 2016

Note: Actual official high and low records may vary slightly from our data, if they occured in-between our weather recording intervals... More about our weather records

Advertising

Smara Weather History for the Previous 24 Hours

Scroll right to see more
 ConditionsComfort  
Time TempWeatherWind HumidityBarometerVisibility
10:00 AM
Fri, Jul 29
73 °FPassing clouds.22 mph65%29.98 "Hg5 mi
9:00 AM72 °FPassing clouds.23 mph69%29.98 "Hg5 mi
8:00 AM70 °FPassing clouds.21 mph73%29.98 "Hg5 mi
7:00 AM70 °FPassing clouds.23 mph73%29.95 "Hg5 mi
6:00 AM70 °FPassing clouds.21 mph73%29.95 "Hg5 mi
5:00 AM70 °FPassing clouds.21 mph73%29.95 "Hg5 mi
4:00 AM70 °FPassing clouds.26 mph73%29.95 "Hg5 mi
3:00 AM70 °FPassing clouds.25 mph73%29.95 "Hg5 mi
2:00 AM70 °FPassing clouds.25 mph78%29.98 "Hg5 mi
1:00 AM70 °FPassing clouds.26 mph78%29.98 "Hg5 mi
12:00 AM70 °FPassing clouds.25 mph78%29.98 "Hg5 mi
11:00 PM
Thu, Jul 28
70 °FPassing clouds.24 mph78%29.98 "Hg5 mi
10:00 PM70 °FPassing clouds.23 mph78%29.98 "Hg5 mi
9:00 PM72 °FClear.28 mph73%29.95 "Hg5 mi
8:00 PM75 °FClear.26 mph65%29.95 "Hg5 mi
7:00 PM79 °FClear.29 mph58%29.92 "Hg5 mi
6:00 PM82 °FClear.32 mph48%29.92 "Hg5 mi
5:00 PM84 °FClear.29 mph45%29.92 "Hg5 mi
4:00 PM84 °FClear.24 mph45%29.92 "Hg5 mi
3:00 PM84 °FClear.25 mph45%29.95 "Hg5 mi
2:00 PM84 °FClear.25 mph48%29.98 "Hg5 mi
1:00 PM82 °FClear.25 mph51%29.98 "Hg5 mi
12:00 PM79 °FClear.23 mph58%29.98 "Hg5 mi
11:00 AM77 °FClear.24 mph61%30.01 "Hg5 mi
Weather by CustomWeather, © 2016

See weather overviewHow to use our weather pages